When you browse on this site, cookies collect data to enhance your experience and personalize the content and advertising you see.
Visit our Privacy Policy to learn more. By continuing to use the site, you agree to this use of cookies and data.
  • In Slovakia
  • List of Countries
  • For 7 days
  • Water Temperature
  • Weather Map
  • Weather Widgets
  • user-avatar
    Login

    Hourly Weather Maloe Gangozero

    Today, 6 April, Monday

    Time Temperature Precipitation Wind Pressure Humidity
    00:00 -7°C° 0 mm 4 mps 763 mmHg 75%
    01:00 -7°C° 0 mm 4 mps 763 mmHg 77%
    02:00 -7°C° 0 mm 3 mps 763 mmHg 76%
    03:00 -7°C° 0 mm 3 mps 764 mmHg 77%
    04:00 -8°C° 0 mm 3 mps 764 mmHg 79%
    05:00 -8°C° 0 mm 3 mps 764 mmHg 80%
    06:00 -7°C° 0 mm 3 mps 764 mmHg 76%
    07:00 -6°C° 0 mm 3 mps 765 mmHg 71%
    08:00 -5°C° 0 mm 3 mps 765 mmHg 67%
    09:00 -4°C° 0 mm 3 mps 766 mmHg 61%
    10:00 -2°C° 0 mm 3 mps 766 mmHg 55%
    11:00 -1°C° 0 mm 2 mps 766 mmHg 50%
    12:00 +1°C° 0 mm 2 mps 766 mmHg 48%
    13:00 +1°C° 0 mm 2 mps 766 mmHg 47%
    14:00 +1°C° 0 mm 2 mps 767 mmHg 46%
    15:00 +1°C° 0 mm 2 mps 767 mmHg 50%
    16:00 +2°C° 0 mm 1 mps 767 mmHg 54%
    17:00 +2°C° 0 mm 1 mps 767 mmHg 57%
    18:00 +1°C° 0 mm 1 mps 767 mmHg 61%
    19:00 -2°C° 0 mm 2 mps 767 mmHg 64%
    20:00 -3°C° 0 mm 2 mps 767 mmHg 68%
    21:00 -4°C° 0 mm 2 mps 767 mmHg 67%
    22:00 -4°C° 0 mm 2 mps 767 mmHg 67%
    23:00 -4°C° 0 mm 2 mps 767 mmHg 66%

    Tomorrow, 7 April, Tuesday

    Time Temperature Precipitation Wind Pressure Humidity
    00:00 -4°C° 0 mm 3 mps 766 mmHg 64%
    01:00 -4°C° 0 mm 3 mps 766 mmHg 62%
    02:00 -4°C° 0 mm 4 mps 765 mmHg 60%
    03:00 -4°C° 0.1 mm 4 mps 765 mmHg 69%
    04:00 -5°C° 0.1 mm 5 mps 764 mmHg 79%
    05:00 -5°C° 0.1 mm 5 mps 763 mmHg 88%
    06:00 -4°C° 0 mm 5 mps 763 mmHg 86%
    07:00 -2°C° 0 mm 5 mps 762 mmHg 85%
    08:00 -1°C° 0 mm 4 mps 761 mmHg 84%
    09:00 0°C° 0 mm 4 mps 761 mmHg 82%
    10:00 +1°C° 0 mm 4 mps 760 mmHg 80%
    11:00 +3°C° 0 mm 4 mps 759 mmHg 77%
    12:00 +3°C° 0 mm 5 mps 758 mmHg 76%
    13:00 +5°C° 0 mm 5 mps 757 mmHg 74%
    14:00 +5°C° 0 mm 5 mps 756 mmHg 73%
    15:00 +5°C° 0 mm 5 mps 755 mmHg 74%
    16:00 +5°C° 0 mm 5 mps 755 mmHg 76%
    17:00 +5°C° 0 mm 4 mps 754 mmHg 77%
    18:00 +4°C° 0 mm 4 mps 753 mmHg 80%
    19:00 +3°C° 0 mm 4 mps 752 mmHg 84%
    20:00 +3°C° 0 mm 4 mps 752 mmHg 87%
    21:00 +3°C° 0 mm 4 mps 751 mmHg 88%
    22:00 +3°C° 0 mm 4 mps 751 mmHg 90%
    23:00 +3°C° 0 mm 4 mps 751 mmHg 91%

    Day after tomorrow, 8 April, Wednesday

    Time Temperature Precipitation Wind Pressure Humidity
    00:00 +1°C° 0 mm 4 mps 751 mmHg 90%
    01:00 +1°C° 0 mm 5 mps 751 mmHg 89%
    02:00 0°C° 0 mm 5 mps 751 mmHg 87%
    03:00 0°C° 0 mm 5 mps 752 mmHg 86%
    04:00 0°C° 0 mm 5 mps 753 mmHg 84%
    05:00 0°C° 0 mm 5 mps 754 mmHg 83%
    06:00 +1°C° 0 mm 5 mps 754 mmHg 80%
    07:00 +1°C° 0 mm 5 mps 755 mmHg 78%
    08:00 +2°C° 0 mm 5 mps 755 mmHg 75%
    09:00 +2°C° 0 mm 5 mps 755 mmHg 72%
    10:00 +3°C° 0 mm 5 mps 756 mmHg 69%
    11:00 +5°C° 0 mm 4 mps 756 mmHg 66%
    12:00 +6°C° 0 mm 4 mps 756 mmHg 65%
    13:00 +6°C° 0 mm 4 mps 756 mmHg 64%
    14:00 +7°C° 0 mm 4 mps 756 mmHg 62%
    15:00 +6°C° 0 mm 4 mps 755 mmHg 65%
    16:00 +6°C° 0 mm 4 mps 755 mmHg 67%
    17:00 +5°C° 0 mm 5 mps 754 mmHg 70%
    18:00 +5°C° 0 mm 5 mps 753 mmHg 69%
    19:00 +3°C° 0 mm 5 mps 753 mmHg 68%
    20:00 +2°C° 0 mm 6 mps 752 mmHg 67%
    21:00 +2°C° 0 mm 6 mps 751 mmHg 70%
    22:00 +2°C° 0 mm 6 mps 750 mmHg 73%
    23:00 +2°C° 0 mm 6 mps 749 mmHg 76%

    9 April, Thursday

    Time Temperature Precipitation Wind Pressure Humidity
    00:00 +2°C° 0 mm 6 mps 749 mmHg 78%
    01:00 +1°C° 0 mm 6 mps 748 mmHg 79%
    02:00 +1°C° 0 mm 6 mps 747 mmHg 81%
    03:00 +1°C° 0 mm 5 mps 747 mmHg 83%
    04:00 +1°C° 0 mm 5 mps 746 mmHg 84%
    05:00 +1°C° 0 mm 5 mps 745 mmHg 86%
    06:00 +1°C° 0.1 mm 5 mps 745 mmHg 89%
    07:00 +1°C° 0.1 mm 5 mps 745 mmHg 93%
    08:00 +1°C° 0.1 mm 4 mps 744 mmHg 96%
    09:00 +1°C° 0.7 mm 4 mps 744 mmHg 91%
    10:00 +1°C° 0.7 mm 3 mps 744 mmHg 86%
    11:00 +1°C° 0.7 mm 3 mps 744 mmHg 81%
    12:00 +2°C° 0.1 mm 3 mps 745 mmHg 74%
    13:00 +4°C° 0.1 mm 2 mps 745 mmHg 68%
    14:00 +5°C° 0.1 mm 2 mps 746 mmHg 62%
    15:00 +5°C° 0 mm 2 mps 746 mmHg 62%
    16:00 +5°C° 0 mm 2 mps 746 mmHg 62%
    17:00 +4°C° 0 mm 2 mps 747 mmHg 61%
    18:00 +3°C° 0 mm 2 mps 747 mmHg 67%
    19:00 +2°C° 0 mm 2 mps 748 mmHg 73%
    20:00 +1°C° 0 mm 2 mps 748 mmHg 78%
    21:00 -1°C° 0 mm 2 mps 749 mmHg 78%
    22:00 -1°C° 0 mm 2 mps 749 mmHg 77%
    23:00 -2°C° 0 mm 3 mps 749 mmHg 76%

    10 April, Friday

    Time Temperature Precipitation Wind Pressure Humidity
    00:00 -2°C° 0 mm 2 mps 749 mmHg 77%
    01:00 -3°C° 0 mm 2 mps 750 mmHg 77%
    02:00 -3°C° 0 mm 2 mps 750 mmHg 78%
    03:00 -3°C° 0 mm 2 mps 750 mmHg 79%
    04:00 -3°C° 0 mm 2 mps 750 mmHg 81%
    05:00 -3°C° 0 mm 2 mps 750 mmHg 83%
    06:00 -3°C° 0 mm 2 mps 750 mmHg 78%
    07:00 -2°C° 0 mm 2 mps 751 mmHg 74%
    08:00 +1°C° 0 mm 1 mps 751 mmHg 69%
    09:00 +2°C° 0 mm 1 mps 751 mmHg 65%
    10:00 +2°C° 0 mm 1 mps 751 mmHg 62%
    11:00 +3°C° 0 mm 1 mps 751 mmHg 58%
    12:00 +3°C° 0 mm 1 mps 751 mmHg 58%
    13:00 +3°C° 0 mm 1 mps 751 mmHg 57%
    14:00 +3°C° 0 mm 1 mps 750 mmHg 57%
    15:00 +3°C° 0 mm 1 mps 750 mmHg 58%
    16:00 +2°C° 0 mm 1 mps 750 mmHg 60%
    17:00 +2°C° 0 mm 1 mps 750 mmHg 61%
    18:00 +1°C° 0 mm 1 mps 750 mmHg 65%
    19:00 0°C° 0 mm 1 mps 750 mmHg 69%
    20:00 -1°C° 0 mm 1 mps 749 mmHg 73%
    21:00 -3°C° 0 mm 2 mps 749 mmHg 73%
    22:00 -3°C° 0 mm 2 mps 749 mmHg 72%
    23:00 -3°C° 0 mm 2 mps 749 mmHg 72%

    11 April, Saturday

    Time Temperature Precipitation Wind Pressure Humidity
    00:00 -4°C° 0 mm 3 mps 749 mmHg 73%
    01:00 -4°C° 0 mm 3 mps 749 mmHg 74%
    02:00 -4°C° 0 mm 3 mps 748 mmHg 75%
    03:00 -4°C° 0 mm 3 mps 748 mmHg 76%
    04:00 -4°C° 0 mm 3 mps 749 mmHg 76%
    05:00 -4°C° 0 mm 3 mps 749 mmHg 77%
    06:00 -2°C° 0 mm 3 mps 749 mmHg 76%
    07:00 -2°C° 0 mm 3 mps 749 mmHg 75%
    08:00 -2°C° 0 mm 3 mps 749 mmHg 74%
    09:00 -1°C° 0 mm 3 mps 750 mmHg 70%
    10:00 -1°C° 0 mm 3 mps 750 mmHg 67%
    11:00 0°C° 0 mm 3 mps 751 mmHg 63%
    12:00 +1°C° 0 mm 2 mps 751 mmHg 62%
    13:00 +1°C° 0 mm 2 mps 752 mmHg 61%
    14:00 +2°C° 0 mm 2 mps 752 mmHg 60%
    15:00 +2°C° 0 mm 2 mps 753 mmHg 59%
    16:00 +1°C° 0 mm 2 mps 753 mmHg 59%
    17:00 +2°C° 0 mm 1 mps 753 mmHg 58%
    18:00 +1°C° 0 mm 1 mps 754 mmHg 62%
    19:00 0°C° 0 mm 1 mps 754 mmHg 66%
    20:00 -1°C° 0 mm 1 mps 755 mmHg 70%
    21:00 -1°C° 0 mm 1 mps 755 mmHg 70%
    22:00 -1°C° 0 mm 1 mps 755 mmHg 71%
    23:00 -2°C° 0 mm 1 mps 755 mmHg 71%
    Show more